Regional Weather Roundup
Issued by NWS Northern Indiana

Home | Current Version | Previous Version | Text Only | Print | Product List | Glossary Off
Versions: 1 2 3 4 5 6 7 8 9 10 11 12 13 14 15 16 17 18 19 20 21 22 23 24 25 26 27 28 29 30 31 32 33 34 35 36 37 38 39 40 41 42 43 44 45 46 47 48 49 50

000
ASUS43 KIWX 301610
RWRIWX

KIWX WEATHER ROUNDUP
NATIONAL WEATHER SERVICE NORTHERN INDIANA
1200 PM EDT MON MAR 30 2015

NOTE: "FAIR" INDICATES FEW OR NO CLOUDS BELOW 12,000 FEET WITH NO
SIGNIFICANT WEATHER AND/OR OBSTRUCTIONS TO VISIBILITY.

* THESE STATIONS ARE NOT UNDER NWS QUALITY CONTROL. THEY ALSO MAY NOT
  REPORT WEATHER SUCH AS PRECIPITATION OR FOG.

INZ001>027-301700-
NORTHERN INDIANA

CITY           SKY/WX    TMP DP  RH WIND       PRES   REMARKS
GARY*          MOSUNNY   54  19  26 W15       30.08R
VALPARAISO     SUNNY     52  28  39 W20       30.07S
MICHIGAN CITY* SUNNY     52  21  30 W12G18    30.07R
LAPORTE*       SUNNY     54  27  34 NW15G26   30.06R
KNOX*            N/A     52   3  14 W18       30.06S
SOUTH BEND     SUNNY     53  24  32 W22G29    30.05S
ELKHART*       SUNNY     50  19  29 W15G23    30.03S
GOSHEN         SUNNY     52  27  38 W18G30    30.02F
MONTICELLO*    SUNNY     51  32  47 W12       30.09S
LOGANSPORT*    SUNNY     50  30  46 W12       30.09S
ROCHESTER*     SUNNY     54  28  37 W10G22    30.06F
WARSAW*        SUNNY     50  27  40 NW20G26   30.04S
ANGOLA*        SUNNY     52  30  43 NW16      30.00R
FORT WAYNE     MOSUNNY   50  32  50 W17G26    30.05S
HUNTINGTON*    SUNNY     49  21  32 NW12G22   30.05S
MARION*        SUNNY     49  33  53 W17G23    30.09S

$$
INZ028>050-301700-
CENTRAL INDIANA

CITY           SKY/WX    TMP DP  RH WIND       PRES   REMARKS
LAFAYETTE      SUNNY     52  30  43 W10G17    30.11R
KOKOMO*          N/A     50  34  53 W16       30.09S
MUNCIE*        SUNNY     49  33  54 W16       30.09R
INDIANAPOLIS   MOSUNNY   52  31  44 NW12      30.12R

$$
MIZ043>046-050>051-056>058-064>065-071>073-077>080-301700-
SOUTHWEST LOWER MICHIGAN

CITY           SKY/WX    TMP DP  RH WIND       PRES   REMARKS
BATTLE CREEK   SUNNY     51  27  39 W25G36    29.97S
BENTON HARBOR  SUNNY     45  31  58 W17       30.04R
COLDWATER*     SUNNY     49  24  37 W22G28    29.99R
HILLSDALE*     SUNNY     51  26  38 NW21      29.96S
HOLLAND        SUNNY     47  32  56 W20G26    30.00R
GRAND RAPIDS   MOSUNNY   50  30  46 W20G36    29.95S
KALAMAZOO      MOSUNNY   50  27  40 NW23      30.00R
STURGIS*       SUNNY     48  28  46 W21G30    30.00S
THREE RIVERS*  FAIR      50  27  39 W23G31    30.01S

$$
OHZ001>008-015>018-024>025-301700-
NORTHWEST OHIO

CITY           SKY/WX    TMP DP  RH WIND       PRES   REMARKS
WAUSEON*       FAIR      50  27  40 W16G25    29.98S
DEFIANCE       SUNNY     51  27  39 W15G21    30.02S
FINDLAY        MOSUNNY   50  28  42 W18       30.01S
TOLEDO EXPRESS SUNNY     50  24  36 W17G26    29.97F
TOLEDO METCALF SUNNY     52  26  36 W23G32    29.98F
LIMA           MOSUNNY   49  32  52 W18G33    30.03S

$$
AND FOR LAKE MICHIGAN COASTAL AND OPEN LAKE BUOY OBSERVATIONS

STATION/POSITION TEMP    WIND        PRES    VSBY  WAVE
                 AIR SEA DIR/SP/G                  HT/PER
                 (F)     (DEG/KT/KT) (MB)    (MI)  (FT/S)
CALUMET HARBOR    53     270/  8/ 15 1017.0S
MICHIGAN CITY     39     220/ 14/ 15   N/A
BURNS HARBOR      43     260/ 10/ 12 1019.0S
SAINT JOSEPH      36     190/  7/  8 1017.6R

$$
&&



USA.gov is the U.S. government's official web portal to all federal, state and local government web resources and services.